Weather in Yubileyny

Russia / Kirov Oblast     58°28′38″N   49°12′19″E
temp.,
°C
wind,
m/s
gust,
m/s
humid.,
%
clouds,
%
prec.,
mm/h
press.,
hPa
HPBL,
m
16 may, sun
sun1600:00+16sse118694 0.0 101416
03:00+16ssw389137 0.0 1014148
06:00+19s4107884 0.0 1013327
09:00+23sw596171 0.0 1013844
12:00+26sw6104712 0.0 10122130
15:00+27sw6124318 0.0 10122899
18:00+23w59521 0.0 1012586
21:00+18sw410635 0.0 1013201
17 may, mon
mon1700:00+15sw35774 0.0 101483
03:00+14ssw368449 0.0 1015110
06:00+17sw48751 0.0 1016298
09:00+21wsw69535 0.0 10161302
12:00+23w69485 0.0 10171792
15:00+24w684489 0.0 10171918
18:00+22wnw3657100 0.0 1017240
21:00+16nw226647 0.0 101821
18 may, tue
tue1800:00+15n117199 0.0 101911
03:00+13ene227586 0.0 102012
06:00+17ene226655 0.0 1020153
09:00+22e22495 0.0 1020701
12:00+24e22415 0.0 10201242
15:00+26ene22395 0.0 10191398
18:00+24ese23515 0.1 101999
21:00+18ese48666 0.1 1019124
19 may, wed
wed1900:00+17ese514609 0.0 1020347
03:00+14ese411735 0.0 1020253
06:00+17se5107048 0.0 1020381
09:00+22se575584 0.0 1020730
12:00+25sse674880 0.0 10191125
15:00+26sse684460 0.0 10181688
18:00+24se59555 0.0 1017505
21:00+19se4117011 0.0 1016258
20 may, thu
thu2000:00+18se412635 0.0 1016349
03:00+15sse397551 0.0 1016213
06:00+18se410755 0.7 1015356
09:00+24sse685498 0.7 1013907
12:00+26sse8134726 0.0 10111841
15:00+24sse91757100 0.0 10091715
18:00+17ssw81483100 4.7 10101018
21:00+12sw49871 4.9 1013397